[[{"header":{"parameterUnit":"m.s-1","parameterCategory":1,"la1":30.2991,"la2":30.254,"lo1":-89.0895,"lo2":-89.0444,"dy":0.0017,"dx":0.0017,"nx":28,"ny":28,"refTime":"2025-11-12T09:00:00:Z","depth":0,"parameterNumber":2,"parameterNumberName":"U-component_of_WINDS"},"data":[0,0,0,0,0,0,0,0,0,0,0,0,0,0,0,0,0,0,0,0,0,0,0,0,0,0,0,0,0,0,0,0,0,0,0,0,0,0,0,0,0,0,0,0,0,0,0,0,0,0,0,0,0,0,0,0,0,0,2.0052,2.0052,0,2.0078,2.0078,2.0078,1.9994,1.9991,1.9989,1.9986,2.0017,2.002,2.0023,0,0,0,0,0,0,0,0,0,0,0,0,0,1.993,1.9933,2.0052,2.0052,2.0052,2.0078,2.0078,2.0078,1.9994,1.9991,1.9988,1.9985,2.0016,2.002,2.0023,0,0,0,0,0,0,0,0,0,0,0,0,0,1.9973,1.9934,2.0052,2.0013,2.001,2.0077,2.0078,2.0078,1.9995,1.9991,1.9987,1.9983,2.0015,2.0019,2.0024,2.0131,0,0,2.0039,2.0041,0,0,0,0,0,0,0,0,1.997,1.9977,2.0019,2.0016,2.0012,2.0028,2.0046,2.0096,1.9996,2.0001,1.9986,1.9982,2.0024,2.0028,2.0041,2.0132,2.0134,2.0039,2.0042,2.0044,2.0046,0,0,0,0,0,0,0,1.9968,1.9976,2.0062,2.0019,2.0016,1.9995,1.9997,2.0055,2.0034,2.0,1.9994,1.9998,2.0022,2.0037,2.0041,2.0134,2.0039,2.0043,2.0046,2.0048,2.031,2.0314,0,0,0,0,0,0,1.9969,1.9974,2.0061,2.0063,1.9981,2.0,2.0002,2.0027,2.0033,2.003,2.0001,1.9994,2.0031,2.0036,2.0042,2.0165,2.0044,2.0049,2.0051,2.0306,2.0311,2.0315,0,0,0,0,0,0,1.9967,1.9978,2.006,2.0017,2.0025,2.0007,2.0035,2.003,2.0045,2.0034,2.003,2.002,2.0028,2.0035,2.0108,2.0165,2.0051,2.0055,2.0301,2.0307,2.0313,2.0412,0,0,0,0,0,0,1.9964,1.9978,2.0018,2.0018,2.0028,2.0126,2.0039,2.0033,2.0053,2.0044,2.0051,2.0048,2.0025,2.0101,2.0113,2.0169,2.0059,2.0296,2.0304,2.0311,2.0404,2.0421,2.0436,0,0,0,0,0,1.996,2.0047,2.002,2.0032,2.0078,2.0129,2.0135,2.0105,2.0058,2.0098,2.009,2.0048,2.0157,2.011,2.0122,2.0181,2.0292,2.0302,2.0311,2.0397,2.0418,2.0435,0,0,0,0,0,0,2.0057,2.0046,2.0017,2.0106,2.0119,2.0115,2.0165,2.0129,2.0157,2.0147,2.011,2.0113,2.0192,2.0194,2.0141,2.0282,2.0216,2.0228,2.0278,2.0298,2.0313,2.031,2.0063,0,0,0,0,0,2.0088,2.0129,2.0119,2.0199,2.0206,2.0185,2.0206,2.0181,2.0194,2.0199,2.0197,2.0211,2.0248,2.0273,2.0307,2.0404,2.0403,2.045,2.0466,2.0479,2.049,2.0538,2.0557,2.0345,2.0345,2.0345,0,0,2.0154,2.0153,2.0182,2.0218,2.0225,2.0268,2.019,2.024,2.0272,2.0207,2.0274,2.0273,2.0287,2.0371,2.0408,2.0375,2.0548,2.0491,2.0501,2.0505,2.0549,2.0569,2.0587,2.0351,2.035,2.0349,0,0,2.0295,2.03,2.0365,2.0373,2.0383,2.0367,2.0383,2.0384,2.0379,2.0446,2.0397,2.0435,2.05,2.051,2.0524,2.0666,2.0627,2.0678,2.0761,2.0808,2.0824,2.0839,2.0887,2.0905,2.0689,2.0689,2.0689,0,2.0376,2.0439,2.0404,2.0456,2.0472,2.0413,2.0478,2.0487,2.0509,2.0522,2.0484,2.0561,2.0567,2.0651,2.0685,2.0699,2.0715,2.0676,2.0825,2.0839,2.0852,2.0897,2.0916,2.0695,2.0694,2.0693,2.0693,0,2.0536,2.058,2.0632,2.0651,2.0673,2.0732,2.0705,2.0732,2.0705,2.0693,2.076,2.0764,2.0795,2.0814,2.079,2.0894,2.0872,2.0831,2.0764,2.0879,2.092,2.0938,2.0703,2.0701,2.0699,2.0698,0,0,2.0741,2.0736,2.0756,2.0762,2.0767,2.0801,2.0856,2.0885,2.0907,2.0924,2.0968,2.1023,2.0982,2.0998,2.0974,2.1016,2.1124,2.0968,2.0968,2.0995,2.1235,2.1265,2.1286,2.1099,2.1102,2.1104,2.1233,0,2.0877,2.0969,2.0938,2.1032,2.107,2.1013,2.1061,2.1069,2.1059,2.1091,2.1081,2.1119,2.1064,2.1073,2.1112,2.1103,2.1171,2.1093,2.1138,2.114,2.1134,2.1308,2.134,2.1462,2.125,2.1252,2.1254,0,2.1049,2.1069,2.1166,2.116,2.1176,2.1219,2.124,2.1272,2.128,2.1269,2.1285,2.1251,2.1304,2.1238,2.131,2.1257,2.1274,2.1272,2.1276,2.1277,2.1203,2.1312,2.15,2.1518,2.128,2.1278,2.1276,0,2.1185,2.1236,2.1299,2.1307,2.1303,2.1334,2.1335,2.1338,2.1356,2.1376,2.1387,2.1414,2.1428,2.1449,2.1423,2.1377,2.1497,2.143,2.1489,2.149,2.1516,2.1514,2.1707,2.1531,2.1531,2.153,2.153,0,2.1339,2.14,2.1359,2.1398,2.1464,2.1427,2.1493,2.1487,2.149,2.1527,2.1481,2.1516,2.148,2.1513,2.1493,2.1553,2.1561,2.1553,2.1547,2.1556,2.1557,2.1565,2.1555,2.1535,2.1534,2.1533,2.1532,0,2.1501,2.1476,2.1541,2.1531,2.153,2.1579,2.157,2.1606,2.1591,2.1638,2.1647,2.1625,2.166,2.1636,2.1673,2.1659,2.1737,2.1721,2.1734,2.1728,2.1788,2.1782,2.1991,2.2016,2.1826,2.1828,2.183,0,2.16,2.1645,2.1639,2.1658,2.1661,2.1694,2.1711,2.1676,2.1696,2.1706,2.174,2.177,2.1792,2.1851,2.1838,2.1865,2.1847,2.1918,2.1851,2.1857,2.1844,2.1841,2.1844,2.1932,2.1934,2.1936,2.1937,0,2.1777,2.1762,2.1787,2.1807,2.1828,2.1843,2.1855,2.1874,2.1838,2.1863,2.1896,2.1913,2.1948,2.1978,2.1999,2.2,2.1962,2.1959,2.1973,2.1982,2.1986,2.1981,2.1768,2.1954,2.1952,2.1951,2.195,2.1949,2.1909,2.1944,2.1944,2.1973,2.1977,2.1988,2.2019,2.2007,2.2034,2.2058,2.2036,2.2076,2.208,2.2104,2.2109,2.2139,2.211,2.2132,2.2137,2.2143,2.2149,2.1983,2.2144,2.2143,2.2143,2.2142,2.2142,0,2.2081,2.2077,2.2104,2.2119,2.2141,2.2102,2.2112,2.2133,2.2168,2.2174,2.2196,2.2233,2.2261,2.225,2.2275,2.2301,2.2284,2.2309,2.2305,2.2305,2.2176,2.2159,2.2321,2.2321,2.2321,2.2321,2.2321,2.2321,2.2173,2.2229,2.2213,2.2271,2.2267,2.2304,2.2312,2.2321,2.2325,2.2368,2.239,2.2382,2.2381,2.2404,2.2428,2.2424,2.2434,2.2464,2.2454,2.2333,2.2315,2.2298,2.2282,2.2467,2.2467,2.258,2.2581,2.2582]},{"header":{"parameterUnit":"m.s-1","parameterCategory":1,"la1":30.2991,"la2":30.254,"lo1":-89.0895,"lo2":-89.0444,"dy":0.0017,"dx":0.0017,"nx":28,"ny":28,"refTime":"2025-11-12T09:00:00:Z","depth":0,"parameterNumber":3,"parameterNumberName":"V-component_of_WINDS"},"data":[0,0,0,0,0,0,0,0,0,0,0,0,0,0,0,0,0,0,0,0,0,0,0,0,0,0,0,0,0,0,0,0,0,0,0,0,0,0,0,0,0,0,0,0,0,0,0,0,0,0,0,0,0,0,0,0,0,0,1.5933,1.5932,0,1.5833,1.5832,1.5831,1.5709,1.5708,1.5706,1.5704,1.5603,1.5602,1.5601,0,0,0,0,0,0,0,0,0,0,0,0,0,1.6018,1.6018,1.5933,1.5932,1.593,1.5833,1.5832,1.583,1.571,1.5708,1.5705,1.5703,1.5603,1.5602,1.5601,0,0,0,0,0,0,0,0,0,0,0,0,0,1.5956,1.6017,1.5933,1.5858,1.5851,1.5833,1.5832,1.583,1.571,1.5707,1.5705,1.5702,1.5603,1.5602,1.5601,1.5649,0,0,1.5597,1.5596,0,0,0,0,0,0,0,0,1.596,1.5953,1.5871,1.5863,1.5855,1.5781,1.5825,1.5769,1.5711,1.5764,1.5704,1.5701,1.5664,1.5658,1.5645,1.5644,1.564,1.5596,1.5596,1.5595,1.5595,0,0,0,0,0,0,0,1.5965,1.5957,1.5893,1.587,1.586,1.583,1.5818,1.5814,1.5731,1.5759,1.575,1.574,1.566,1.5647,1.5642,1.5639,1.5596,1.5595,1.5594,1.5594,1.567,1.5673,0,0,0,0,0,0,1.598,1.5961,1.5896,1.589,1.5901,1.5831,1.5817,1.5807,1.5731,1.5716,1.5742,1.5734,1.5651,1.5644,1.5638,1.5688,1.5595,1.5594,1.5593,1.5667,1.5671,1.5674,0,0,0,0,0,0,1.5982,1.5975,1.59,1.5923,1.5911,1.5832,1.5822,1.5807,1.5794,1.5718,1.5703,1.5745,1.5648,1.564,1.5647,1.5683,1.5593,1.5592,1.5664,1.5668,1.5672,1.5789,0,0,0,0,0,0,1.5985,1.5977,1.5995,1.5925,1.5911,1.5911,1.5824,1.5807,1.5792,1.5781,1.5716,1.5703,1.5645,1.5649,1.5645,1.5679,1.5591,1.566,1.5666,1.5671,1.5782,1.5797,1.581,0,0,0,0,0,1.5989,1.6032,1.5996,1.5989,1.5931,1.5913,1.5905,1.5838,1.5796,1.5812,1.5763,1.5705,1.568,1.5651,1.5646,1.568,1.5658,1.5664,1.5671,1.5776,1.5794,1.581,0,0,0,0,0,0,1.6109,1.6022,1.5981,1.6003,1.5966,1.5893,1.5912,1.586,1.5835,1.5826,1.5744,1.573,1.5746,1.5714,1.5683,1.5721,1.566,1.5666,1.5742,1.5759,1.5773,1.578,1.559,0,0,0,0,0,1.6138,1.6131,1.6055,1.6082,1.6065,1.5993,1.5982,1.5933,1.5892,1.5877,1.5828,1.5791,1.5774,1.5765,1.5746,1.5777,1.576,1.5798,1.5812,1.5824,1.5829,1.5841,1.5857,1.5695,1.5695,1.5695,0,0,1.6198,1.6149,1.615,1.6105,1.6071,1.6065,1.598,1.5978,1.5973,1.5876,1.5879,1.5842,1.5795,1.5814,1.582,1.5787,1.587,1.5832,1.5842,1.5841,1.585,1.5865,1.5879,1.5699,1.5698,1.5698,0,0,1.6303,1.6267,1.6284,1.6251,1.6201,1.6152,1.6156,1.6091,1.6062,1.6064,1.5991,1.5983,1.5957,1.5926,1.5907,1.6,1.5945,1.5996,1.6069,1.6082,1.6095,1.6106,1.6138,1.615,1.6002,1.6002,1.6003,0,1.6384,1.6372,1.6299,1.6301,1.6283,1.6195,1.6211,1.6184,1.613,1.6119,1.6084,1.6047,1.601,1.6019,1.6042,1.603,1.6031,1.6002,1.6099,1.6109,1.6118,1.6148,1.616,1.6009,1.6008,1.6007,1.6007,0,1.6473,1.6466,1.6486,1.6435,1.6419,1.6429,1.6357,1.635,1.6303,1.6258,1.6259,1.6211,1.618,1.6178,1.6133,1.6181,1.6162,1.6115,1.6051,1.6141,1.6167,1.6178,1.6018,1.6016,1.6014,1.6012,0,0,1.665,1.6559,1.6568,1.6543,1.6481,1.6474,1.6479,1.6448,1.6442,1.6408,1.641,1.6389,1.6344,1.6322,1.6272,1.6284,1.6358,1.6233,1.6231,1.6257,1.6407,1.6442,1.6456,1.6322,1.6324,1.6326,1.641,0,1.6743,1.6746,1.6681,1.6702,1.6693,1.661,1.6614,1.6576,1.6535,1.6521,1.6475,1.6461,1.6403,1.6389,1.6397,1.6348,1.6387,1.6341,1.6322,1.6322,1.6334,1.647,1.6508,1.659,1.642,1.6422,1.6423,0,1.6851,1.6823,1.6843,1.6778,1.6772,1.6778,1.6743,1.6732,1.6687,1.6655,1.6631,1.6574,1.6573,1.6515,1.6513,1.6483,1.6471,1.6446,1.6447,1.6441,1.6377,1.6467,1.6615,1.6627,1.6439,1.6437,1.6436,0,1.6977,1.6943,1.695,1.6932,1.6858,1.6863,1.6832,1.6785,1.677,1.674,1.6729,1.67,1.6684,1.6662,1.6598,1.6562,1.6603,1.6539,1.6576,1.6578,1.6587,1.6587,1.6734,1.6583,1.6583,1.6583,1.6582,0,1.7086,1.7101,1.7005,1.701,1.7024,1.6949,1.6965,1.6926,1.6884,1.6879,1.6806,1.6803,1.6719,1.6706,1.6657,1.6661,1.6655,1.6629,1.6615,1.6634,1.6638,1.6624,1.6616,1.6586,1.6585,1.6585,1.6584,0,1.7227,1.7164,1.7166,1.7095,1.7078,1.7092,1.7031,1.7032,1.6985,1.6979,1.6974,1.6901,1.6882,1.6816,1.6782,1.6748,1.6768,1.6743,1.6783,1.6774,1.6813,1.681,1.6955,1.697,1.6812,1.6814,1.6815,0,1.73,1.731,1.724,1.7231,1.7204,1.7191,1.7175,1.7101,1.7088,1.7037,1.7044,1.7019,1.6995,1.6969,1.6912,1.6885,1.6857,1.691,1.6853,1.6871,1.6856,1.6855,1.6855,1.6922,1.6924,1.6926,1.6927,0,1.7436,1.7404,1.7384,1.7353,1.7336,1.7308,1.7275,1.7272,1.719,1.7179,1.7158,1.714,1.7104,1.708,1.7043,1.7011,1.6955,1.6946,1.6953,1.6972,1.6994,1.698,1.6815,1.6943,1.6941,1.694,1.6939,1.6939,1.7543,1.7547,1.7499,1.7478,1.7446,1.7418,1.7415,1.7368,1.7349,1.7314,1.7272,1.7256,1.721,1.7155,1.7127,1.7113,1.7083,1.7093,1.7095,1.7099,1.7107,1.6998,1.7107,1.7106,1.7106,1.7105,1.7105,0,1.7673,1.7638,1.762,1.7577,1.7561,1.751,1.7472,1.7462,1.7449,1.7411,1.7388,1.7364,1.734,1.7282,1.7253,1.7253,1.7226,1.7247,1.7245,1.7239,1.7137,1.7133,1.7269,1.7269,1.7269,1.7269,1.7269,1.7269,1.7739,1.7742,1.7705,1.7691,1.7655,1.7639,1.7621,1.7594,1.7563,1.754,1.7519,1.7482,1.7435,1.7401,1.7377,1.736,1.7352,1.7381,1.7356,1.7262,1.7246,1.7231,1.7227,1.738,1.738,1.7458,1.7459,1.7459]}]]